Flag for India Weather past 2 weeks in Kãnpur, Uttar Pradesh, India

Now
84 °F

Scattered clouds.


Feels Like: 86 °F
Forecast: 78 / 101 °F
Wind: 7 mph from Northwest

Location: Lucknow / Amausi


UV Index: 7 (High)

Visibility: 3 mi


Pressure: 29.89 "Hg

Humidity: 51%

Dew point: 64 °F

Location of KãnpurLocation

Historic Weather in Kãnpur

°F

Kãnpur temperature yesterday

Maximum temperature yesterday: 84 °F (at 9:00 AM)
Minimum temperature yesterday: 68 °F (at 1:00 AM)
Average temperature yesterday: 77 °F

Past Weeks' High & Low Weather Summary

 TemperatureHumidityPressure
High109 °F (Apr 7, 4:00 PM)100% (Apr 8, 8:30 AM)29.95 "Hg (Apr 8, 8:30 AM)
Low61 °F (Apr 11, 4:00 AM)10% (Apr 10, 2:30 PM)29.62 "Hg (Apr 17, 7:00 PM)
Average85 °F37%29.78 "Hg
* Reported Apr 4 9:30 AM — Apr 19 10:00 AM, Kãnpur, Weather by CustomWeather, © 2014

Note: Actual official high and low records may vary slightly from our data, if they occured in-between our weather recording intervals... More about our weather records

Advertising

Historic Weather Conditions — Data for Previous 24 hours

 ConditionsComfort  
Time TempWeatherWind HumidityBarometerVisibility
10:00 AM
Apr 19
84 °FScattered clouds.7 mph51%29.89 "Hg3 mi
9:30 AM82 °FScattered clouds.7 mph55%29.92 "Hg2 mi
9:00 AM81 °FScattered clouds.6 mph54%29.89 "Hg2 mi
8:30 AM79 °FScattered clouds.5 mph58%29.89 "Hg2 mi
8:00 AM75 °FHaze.6 mph65%29.89 "Hg2 mi
7:30 AM73 °FHaze.5 mph69%29.86 "Hg2 mi
7:00 AM70 °FHaze.5 mph73%29.86 "Hg2 mi
6:30 AM68 °FScattered clouds.3 mph78%29.83 "Hg2 mi
6:00 AM66 °FPassing clouds.No wind83%29.83 "Hg2 mi
5:30 AM66 °FHaze.No wind83%29.83 "Hg2 mi
5:00 AM66 °FPassing clouds.No wind83%29.83 "Hg2 mi
4:00 AM66 °FPassing clouds.No wind78%29.80 "Hg2 mi
3:00 AM66 °FPassing clouds.3 mph83%29.83 "Hg2 mi
1:00 AM68 °FPassing clouds.3 mph78%29.86 "Hg2 mi
12:00 AM68 °FMostly cloudy.5 mph78%29.86 "Hg2 mi
11:00 PM
Apr 18
72 °FMostly cloudy.5 mph69%29.86 "Hg2 mi
10:00 PM72 °FMostly cloudy.3 mph69%29.89 "Hg2 mi
9:00 PM75 °FMostly cloudy.6 mph61%29.83 "Hg2 mi
8:30 PM75 °FMostly cloudy.9 mph61%29.83 "Hg2 mi
8:00 PM75 °FThunderstorms. Mostly cloudy.8 mph65%29.80 "Hg2 mi
7:30 PM77 °FThunderstorms. Mostly cloudy.5 mph57%29.89 "Hg2 mi
7:00 PM77 °FThunderstorms. Broken clouds.12 mph54%29.83 "Hg2 mi
6:30 PM79 °FBroken clouds.3 mph51%29.80 "Hg2 mi
6:00 PM79 °FBroken clouds.9 mph51%29.80 "Hg2 mi
5:30 PM81 °FBroken clouds.12 mph48%29.80 "Hg2 mi
4:30 PM81 °FBroken clouds.14 mph45%29.86 "Hg1 mi
4:00 PM82 °FBroken clouds.12 mph42%29.83 "Hg1 mi
3:00 PM84 °FBroken clouds.12 mph45%29.86 "Hg2 mi
2:30 PM82 °FBroken clouds.14 mph48%29.89 "Hg2 mi
2:00 PM82 °FBroken clouds.14 mph51%29.92 "Hg2 mi
1:00 PM82 °FBroken clouds.14 mph48%29.92 "Hg2 mi
12:30 PM82 °FBroken clouds.12 mph51%29.89 "Hg2 mi
12:00 PM82 °FBroken clouds.12 mph51%29.89 "Hg2 mi
11:30 AM82 °FBroken clouds.14 mph48%29.89 "Hg2 mi
11:00 AM82 °FBroken clouds.16 mph48%29.89 "Hg2 mi
Weather by CustomWeather, © 2014

See weather overview